Location: Bottenau
(48.5138°N, 8.0462°E)
Time: 05:00:10
(UTC+00:00)

Cosmos 2333 Rocket - Pass Details

Date: 18 April 2021
Orbit: 838 x 864 km, 70.8° (Epoch: 09 May)

Event Time Altitude Azimuth Distance (km) Brightness Sun altitude
Rises 19:57:11 0° 326° (NW) 3,454 6.8 -14.6°
Reaches altitude 10° 19:59:47 10° 319° (NW) 2,511 6.0 -14.9°
Maximum altitude 20:05:06 39° 253° (WSW) 1,261 3.4 -15.6°
Drops below altitude 10° 20:10:22 10° 185° (S) 2,482 4.3 -16.3°
Enters shadow 20:10:56 - 183° (S) 2,685 4.5 -16.4°
